Regional Weather Roundup
Issued by NWS

Home | Current Version | Previous Version | Text Only | Print | Product List | Glossary On
Versions: 1 2 3 4 5 6 7 8 9 10 11 12 13 14 15 16 17 18 19 20 21 22 23 24 25 26 27 28 29 30 31 32 33 34 35 36 37 38 39 40 41 42 43 44 45 46 47 48 49 50
000
ASUS43 KLSX 221059
RWRMO

WEATHER SUMMARY FOR MISSOURI
NATIONAL WEATHER SERVICE SPRINGFIELD MO
600 AM CDT THU JUN 22 2017

NOTE: "FAIR" INDICATES FEW OR NO CLOUDS BELOW 12,000 FEET WITH NO
       SIGNIFICANT WEATHER AND/OR OBSTRUCTIONS TO VISIBILITY.
       CURRENT SKY AND/OR WEATHER CONDITIONS ARE NOT AVAILABLE FOR
       CHILLICOTHE AND FARMINGTON.

MOZ001>031-035>038-043-044-053-054-221200-
...NORTHERN AND WESTERN MISSOURI...

CITY           SKY/WX    TMP DP  RH WIND       PRES   REMARKS
KANSAS CTY INT CLOUDY    69  64  84 S10       29.80F
KANSAS C DTWN  MOCLDY    73  65  75 S12       29.80S
LEE`S SUMMIT   CLEAR     71  66  84 S6        29.83S
ST JOSEPH      CLOUDY    72  66  81 S9        29.77F
CHILLICOTHE      N/A     71  65  81 S3        29.83S
KIRKSVILLE     CLOUDY    71  65  81 SW5       29.86R

$$
MOZ066>068-077>081-088>096-101>105-221200-
...SOUTHWEST MISSOURI...

CITY           SKY/WX    TMP DP  RH WIND       PRES   REMARKS
SPRINGFIELD    MOCLDY    72  69  90 SE8       29.85F
JOPLIN         MOCLDY    72  68  87 SE3       29.83F

$$
MOZ032>034-039>042-045>050-055>058-069>072-221200-
...CENTRAL MISSOURI...

CITY           SKY/WX    TMP DP  RH WIND       PRES   REMARKS
COLUMBIA       MOCLDY    69  68  96 SE7       29.86S
JEFFERSON CITY MOCLDY    71  67  87 E6        29.85F
ROLLA          PTCLDY    68  67  96 SE10      29.87F
SEDALIA        CLEAR     70  68  93 S5        29.85F
WARRENSBURG    PTCLDY    66  63  88 CALM      29.83S
OSAGE BEACH    CLOUDY    68  66  93 CALM      29.86F

$$
MOZ051-052-059>065-221200-
...EAST CENTRAL MISSOURI...

CITY           SKY/WX    TMP DP  RH WIND       PRES   REMARKS
ST LOUIS INTL  MOCLDY    76  68  76 S9        29.89F
SPIRIT OF STL  CLEAR     73  69  87 CALM      29.88S
ST CHARLES     PTCLDY    74  70  87 S7        29.88S

$$
MOZ072>076-082>087-097>100-106>115-221200-
...SOUTH CENTRAL AND SOUTHEAST MISSOURI...

CITY           SKY/WX    TMP DP  RH WIND       PRES   REMARKS
CAPE GIRARDEAU CLOUDY    73  69  87 SE8       29.91F
FARMINGTON     CLOUDY    72  69  90 S7        29.92F
POPLAR BLUFF   CLOUDY    74  71  91 E5        29.89F
WEST PLAINS    CLOUDY    71  70  96 E6        29.90F FOG

$$




USA.gov is the U.S. government's official web portal to all federal, state and local government web resources and services.